Time,TemperatureF,DewpointF,PressureIn,WindDirection,WindDirectionDegrees,WindSpeedMPH,WindSpeedGustMPH,Humidity,HourlyPrecipIn,Conditions,Clouds,dailyrainin,SolarRadiationWatts/m^2,SoftwareType,DateUTC
2013-08-12 00:01:00,54.0,53.0,-100.00,SW,229,0.0,0.0,98,0.00,,,0.00,0.000000,,2013-08-12 05:01:00,
2013-08-12 00:22:00,54.0,53.0,-100.00,SW,229,0.0,0.0,98,0.00,,,0.00,0.000000,,2013-08-12 05:22:00,
2013-08-12 00:32:00,54.0,53.0,-100.00,SW,229,0.0,0.0,98,0.00,,,0.00,0.000000,,2013-08-12 05:32:00,
2013-08-12 00:43:00,54.0,53.0,-100.00,SW,229,0.0,0.0,98,0.00,,,0.00,0.000000,,2013-08-12 05:43:00,
2013-08-12 00:52:00,54.0,53.0,-100.00,SW,229,0.0,0.0,98,0.00,,,0.00,0.000000,,2013-08-12 05:52:00,
2013-08-12 01:01:00,54.0,53.0,-100.00,WNW,291,0.0,0.0,98,0.00,,,0.00,0.000000,,2013-08-12 06:01:00,
2013-08-12 01:22:00,54.0,53.0,-100.00,WNW,291,0.0,0.0,98,0.00,,,0.00,0.000000,,2013-08-12 06:22:00,
2013-08-12 01:32:00,54.0,53.0,-100.00,WNW,291,0.0,0.0,98,0.00,,,0.00,0.000000,,2013-08-12 06:32:00,
2013-08-12 01:42:00,54.0,53.0,-100.00,WNW,291,0.0,0.0,98,0.00,,,0.00,0.000000,,2013-08-12 06:42:00,
2013-08-12 01:52:00,54.0,53.0,-100.00,WNW,291,0.0,0.0,98,0.00,,,0.00,0.000000,,2013-08-12 06:52:00,
2013-08-12 02:01:00,53.0,52.0,-100.00,West,261,0.0,0.0,98,0.00,,,0.00,0.000000,,2013-08-12 07:01:00,
2013-08-12 02:22:00,53.0,52.0,-100.00,West,261,0.0,0.0,98,0.00,,,0.00,0.000000,,2013-08-12 07:22:00,
2013-08-12 02:33:00,53.0,52.0,-100.00,West,261,0.0,0.0,98,0.00,,,0.00,0.000000,,2013-08-12 07:33:00,
2013-08-12 02:43:00,53.0,52.0,-100.00,West,261,0.0,0.0,98,0.00,,,0.00,0.000000,,2013-08-12 07:43:00,
2013-08-12 02:52:00,53.0,52.0,-100.00,West,261,0.0,0.0,98,0.00,,,0.00,0.000000,,2013-08-12 07:52:00,
2013-08-12 03:01:00,50.0,49.0,-100.00,West,280,1.0,2.0,98,0.00,,,0.00,0.000000,,2013-08-12 08:01:00,
2013-08-12 03:22:00,50.0,49.0,-100.00,West,280,1.0,2.0,98,0.00,,,0.00,0.000000,,2013-08-12 08:22:00,
2013-08-12 03:33:00,50.0,49.0,-100.00,West,280,1.0,2.0,98,0.00,,,0.00,0.000000,,2013-08-12 08:33:00,
2013-08-12 03:43:00,50.0,49.0,-100.00,West,280,1.0,2.0,98,0.00,,,0.00,0.000000,,2013-08-12 08:43:00,
2013-08-12 03:53:00,50.0,49.0,-100.00,West,280,1.0,2.0,98,0.00,,,0.00,0.000000,,2013-08-12 08:53:00,
2013-08-12 04:01:00,49.0,48.0,-100.00,West,261,2.0,3.0,98,0.00,,,0.00,0.000000,,2013-08-12 09:01:00,
2013-08-12 04:22:00,49.0,48.0,-100.00,West,261,2.0,3.0,98,0.00,,,0.00,0.000000,,2013-08-12 09:22:00,
2013-08-12 04:32:00,49.0,48.0,-100.00,West,261,2.0,3.0,98,0.00,,,0.00,0.000000,,2013-08-12 09:32:00,
2013-08-12 04:43:00,49.0,48.0,-100.00,West,261,2.0,3.0,98,0.00,,,0.00,0.000000,,2013-08-12 09:43:00,
2013-08-12 04:53:00,49.0,48.0,-100.00,West,261,2.0,3.0,98,0.00,,,0.00,0.000000,,2013-08-12 09:53:00,
2013-08-12 05:01:00,47.0,47.0,-100.00,West,277,0.0,2.0,99,0.00,,,0.00,0.000000,,2013-08-12 10:01:00,
2013-08-12 05:22:00,47.0,47.0,-100.00,West,277,0.0,2.0,99,0.00,,,0.00,0.000000,,2013-08-12 10:22:00,
2013-08-12 05:32:00,47.0,47.0,-100.00,West,277,0.0,2.0,99,0.00,,,0.00,0.000000,,2013-08-12 10:32:00,
2013-08-12 05:43:00,47.0,47.0,-100.00,West,277,0.0,2.0,99,0.00,,,0.00,0.000000,,2013-08-12 10:43:00,
2013-08-12 05:52:00,47.0,47.0,-100.00,West,277,0.0,2.0,99,0.00,,,0.00,0.000000,,2013-08-12 10:52:00,
2013-08-12 06:22:00,46.0,46.0,-100.00,West,273,1.0,2.0,99,0.00,,,0.00,1.000000,,2013-08-12 11:22:00,
2013-08-12 06:32:00,46.0,46.0,-100.00,West,273,1.0,2.0,99,0.00,,,0.00,1.000000,,2013-08-12 11:32:00,
2013-08-12 07:01:00,51.0,50.0,-100.00,West,266,1.0,3.0,97,-99.99,,,0.00,53.000000,,2013-08-12 12:01:00,
2013-08-12 07:22:00,51.0,50.0,-100.00,West,266,1.0,3.0,97,-99.99,,,0.00,53.000000,,2013-08-12 12:22:00,
2013-08-12 07:32:00,51.0,50.0,-100.00,West,266,1.0,3.0,97,-99.99,,,0.00,53.000000,,2013-08-12 12:32:00,
2013-08-12 07:43:00,51.0,50.0,-100.00,West,266,1.0,3.0,97,-99.99,,,0.00,53.000000,,2013-08-12 12:43:00,
2013-08-12 07:52:00,51.0,50.0,-100.00,West,266,1.0,3.0,97,-99.99,,,0.00,53.000000,,2013-08-12 12:52:00,
2013-08-12 08:01:00,61.0,57.0,-100.00,West,260,3.0,5.0,86,0.00,,,0.00,223.000000,,2013-08-12 13:01:00,
2013-08-12 08:22:00,61.0,57.0,-100.00,West,260,3.0,5.0,86,0.00,,,0.00,223.000000,,2013-08-12 13:22:00,
2013-08-12 08:33:00,61.0,57.0,-100.00,West,260,3.0,5.0,86,0.00,,,0.00,223.000000,,2013-08-12 13:33:00,
2013-08-12 08:43:00,61.0,57.0,-100.00,West,260,3.0,5.0,86,0.00,,,0.00,223.000000,,2013-08-12 13:43:00,
2013-08-12 08:53:00,61.0,57.0,-100.00,West,260,3.0,5.0,86,0.00,,,0.00,223.000000,,2013-08-12 13:53:00,
2013-08-12 09:01:00,67.0,57.0,-100.00,WNW,291,5.0,9.0,71,0.00,,,0.00,422.000000,,2013-08-12 14:01:00,
2013-08-12 09:22:00,67.0,57.0,-100.00,WNW,291,5.0,9.0,71,0.00,,,0.00,422.000000,,2013-08-12 14:22:00,
2013-08-12 09:32:00,67.0,57.0,-100.00,WNW,291,5.0,9.0,71,0.00,,,0.00,422.000000,,2013-08-12 14:32:00,
2013-08-12 09:42:00,67.0,57.0,-100.00,WNW,291,5.0,9.0,71,0.00,,,0.00,422.000000,,2013-08-12 14:42:00,
2013-08-12 09:53:00,67.0,57.0,-100.00,WNW,291,5.0,9.0,71,0.00,,,0.00,422.000000,,2013-08-12 14:53:00,
2013-08-12 10:01:00,70.0,55.0,-100.00,NW,326,7.0,14.0,60,0.00,,,0.00,604.000000,,2013-08-12 15:01:00,
2013-08-12 10:22:00,70.0,55.0,-100.00,NW,326,7.0,14.0,60,0.00,,,0.00,604.000000,,2013-08-12 15:22:00,
2013-08-12 10:33:00,70.0,55.0,-100.00,NW,326,7.0,14.0,60,0.00,,,0.00,604.000000,,2013-08-12 15:33:00,
2013-08-12 10:43:00,70.0,55.0,-100.00,NW,326,7.0,14.0,60,0.00,,,0.00,604.000000,,2013-08-12 15:43:00,
2013-08-12 10:52:00,70.0,55.0,-100.00,NW,326,7.0,14.0,60,0.00,,,0.00,604.000000,,2013-08-12 15:52:00,
2013-08-12 11:01:00,70.0,53.0,-100.00,NNW,327,8.0,15.0,55,0.00,,,0.00,763.000000,,2013-08-12 16:01:00,
2013-08-12 11:22:00,70.0,53.0,-100.00,NNW,327,8.0,15.0,55,0.00,,,0.00,763.000000,,2013-08-12 16:22:00,
2013-08-12 11:33:00,70.0,53.0,-100.00,NNW,327,8.0,15.0,55,0.00,,,0.00,763.000000,,2013-08-12 16:33:00,
2013-08-12 11:43:00,70.0,53.0,-100.00,NNW,327,8.0,15.0,55,0.00,,,0.00,763.000000,,2013-08-12 16:43:00,
2013-08-12 11:53:00,70.0,53.0,-100.00,NNW,327,8.0,15.0,55,0.00,,,0.00,763.000000,,2013-08-12 16:53:00,
2013-08-12 12:01:00,70.0,54.0,-100.00,NNW,332,9.0,17.0,57,0.00,,,0.00,737.000000,,2013-08-12 17:01:00,
2013-08-12 12:22:00,70.0,54.0,-100.00,NNW,332,9.0,17.0,57,0.00,,,0.00,737.000000,,2013-08-12 17:22:00,
2013-08-12 12:32:00,70.0,54.0,-100.00,NNW,332,9.0,17.0,57,0.00,,,0.00,737.000000,,2013-08-12 17:32:00,
2013-08-12 12:43:00,70.0,54.0,-100.00,NNW,332,9.0,17.0,57,0.00,,,0.00,737.000000,,2013-08-12 17:43:00,
2013-08-12 12:52:00,70.0,54.0,-100.00,NNW,332,9.0,17.0,57,0.00,,,0.00,737.000000,,2013-08-12 17:52:00,
2013-08-12 13:01:00,70.0,55.0,-100.00,NNW,330,8.0,17.0,58,0.00,,,0.00,818.000000,,2013-08-12 18:01:00,
2013-08-12 13:24:00,70.0,55.0,-100.00,NNW,330,8.0,17.0,58,0.00,,,0.00,818.000000,,2013-08-12 18:24:00,
2013-08-12 13:32:00,70.0,55.0,-100.00,NNW,330,8.0,17.0,58,0.00,,,0.00,818.000000,,2013-08-12 18:32:00,
2013-08-12 13:43:00,70.0,55.0,-100.00,NNW,330,8.0,17.0,58,0.00,,,0.00,818.000000,,2013-08-12 18:43:00,
2013-08-12 13:52:00,70.0,55.0,-100.00,NNW,330,8.0,17.0,58,0.00,,,0.00,818.000000,,2013-08-12 18:52:00,
2013-08-12 14:01:00,69.0,55.0,-100.00,NNW,341,7.0,15.0,61,0.00,,,-99.99,800.000000,,2013-08-12 19:01:00,
2013-08-12 14:22:00,69.0,55.0,-100.00,NNW,341,7.0,15.0,61,0.00,,,-99.99,800.000000,,2013-08-12 19:22:00,
2013-08-12 14:33:00,69.0,55.0,-100.00,NNW,341,7.0,15.0,61,0.00,,,-99.99,800.000000,,2013-08-12 19:33:00,
2013-08-12 14:43:00,69.0,55.0,-100.00,NNW,341,7.0,15.0,61,0.00,,,-99.99,800.000000,,2013-08-12 19:43:00,
2013-08-12 14:52:00,69.0,55.0,-100.00,NNW,341,7.0,15.0,61,0.00,,,-99.99,800.000000,,2013-08-12 19:52:00,
2013-08-12 15:01:00,64.0,55.0,-100.00,NE,54,7.0,15.0,72,0.00,,,0.00,669.000000,,2013-08-12 20:01:00,
2013-08-12 15:22:00,64.0,55.0,-100.00,NE,54,7.0,15.0,72,0.00,,,0.00,669.000000,,2013-08-12 20:22:00,
2013-08-12 15:32:00,64.0,55.0,-100.00,NE,54,7.0,15.0,72,0.00,,,0.00,669.000000,,2013-08-12 20:32:00,
2013-08-12 15:42:00,64.0,55.0,-100.00,NE,54,7.0,15.0,72,0.00,,,0.00,669.000000,,2013-08-12 20:42:00,
2013-08-12 15:52:00,64.0,55.0,-100.00,NE,54,7.0,15.0,72,0.00,,,0.00,669.000000,,2013-08-12 20:52:00,
2013-08-12 16:01:00,62.0,52.0,-100.00,NE,54,8.0,14.0,70,0.00,,,0.00,672.000000,,2013-08-12 21:01:00,
2013-08-12 16:22:00,62.0,52.0,-100.00,NE,54,8.0,14.0,70,0.00,,,0.00,672.000000,,2013-08-12 21:22:00,
2013-08-12 16:32:00,62.0,52.0,-100.00,NE,54,8.0,14.0,70,0.00,,,0.00,672.000000,,2013-08-12 21:32:00,
2013-08-12 16:43:00,62.0,52.0,-100.00,NE,54,8.0,14.0,70,0.00,,,0.00,672.000000,,2013-08-12 21:43:00,
2013-08-12 16:52:00,62.0,52.0,-100.00,NE,54,8.0,14.0,70,0.00,,,0.00,672.000000,,2013-08-12 21:52:00,
2013-08-12 17:01:00,62.0,50.0,-100.00,NE,45,6.0,14.0,65,0.00,,,0.00,576.000000,,2013-08-12 22:01:00,
2013-08-12 17:22:00,62.0,50.0,-100.00,NE,45,6.0,14.0,65,0.00,,,0.00,576.000000,,2013-08-12 22:22:00,
2013-08-12 17:32:00,62.0,50.0,-100.00,NE,45,6.0,14.0,65,0.00,,,0.00,576.000000,,2013-08-12 22:32:00,
2013-08-12 17:43:00,62.0,50.0,-100.00,NE,45,6.0,14.0,65,0.00,,,0.00,576.000000,,2013-08-12 22:43:00,
2013-08-12 17:53:00,62.0,50.0,-100.00,NE,45,6.0,14.0,65,0.00,,,0.00,576.000000,,2013-08-12 22:53:00,
2013-08-12 18:01:00,61.0,46.0,-100.00,ENE,61,6.0,17.0,58,0.00,,,0.00,470.000000,,2013-08-12 23:01:00,
2013-08-12 18:22:00,61.0,46.0,-100.00,ENE,61,6.0,17.0,58,0.00,,,0.00,470.000000,,2013-08-12 23:22:00,
2013-08-12 18:34:00,61.0,46.0,-100.00,ENE,61,6.0,17.0,58,0.00,,,0.00,470.000000,,2013-08-12 23:34:00,
2013-08-12 18:43:00,61.0,46.0,-100.00,ENE,61,6.0,17.0,58,0.00,,,0.00,470.000000,,2013-08-12 23:43:00,
2013-08-12 18:53:00,61.0,46.0,-100.00,ENE,61,6.0,17.0,58,0.00,,,0.00,470.000000,,2013-08-12 23:53:00,
2013-08-12 19:01:00,61.0,46.0,-100.00,NE,34,3.0,13.0,58,0.00,,,0.00,286.000000,,2013-08-13 00:01:00,
2013-08-12 19:24:00,61.0,46.0,-100.00,NE,34,3.0,13.0,58,0.00,,,0.00,286.000000,,2013-08-13 00:24:00,
2013-08-12 19:35:00,61.0,46.0,-100.00,NE,34,3.0,13.0,58,0.00,,,0.00,286.000000,,2013-08-13 00:35:00,
2013-08-12 19:45:00,61.0,46.0,-100.00,NE,34,3.0,13.0,58,0.00,,,0.00,286.000000,,2013-08-13 00:45:00,
2013-08-12 19:54:00,61.0,46.0,-100.00,NE,34,3.0,13.0,58,0.00,,,0.00,286.000000,,2013-08-13 00:54:00,
2013-08-12 20:01:00,55.0,47.0,-100.00,ENE,76,2.0,7.0,75,0.00,,,0.00,98.000000,,2013-08-13 01:01:00,
2013-08-12 20:42:00,55.0,47.0,-100.00,ENE,76,2.0,7.0,75,0.00,,,0.00,98.000000,,2013-08-13 01:42:00,
2013-08-12 20:55:00,55.0,47.0,-100.00,ENE,76,2.0,7.0,75,0.00,,,0.00,98.000000,,2013-08-13 01:55:00,
2013-08-12 21:01:00,46.0,45.0,-100.00,NW,310,0.0,3.0,95,0.00,,,0.00,3.000000,,2013-08-13 02:01:00,
2013-08-12 21:52:00,46.0,45.0,-100.00,NW,310,0.0,3.0,95,0.00,,,0.00,3.000000,,2013-08-13 02:52:00,
2013-08-12 22:01:00,43.0,42.0,-100.00,WSW,252,0.0,2.0,97,0.00,,,0.00,0.000000,,2013-08-13 03:01:00,
2013-08-12 22:43:00,43.0,42.0,-100.00,WSW,252,0.0,2.0,97,0.00,,,0.00,0.000000,,2013-08-13 03:43:00,
2013-08-12 22:54:00,43.0,42.0,-100.00,WSW,252,0.0,2.0,97,0.00,,,0.00,0.000000,,2013-08-13 03:54:00,
2013-08-12 23:01:00,42.0,41.0,-100.00,West,260,0.0,2.0,97,0.00,,,0.00,0.000000,,2013-08-13 04:01:00,
2013-08-12 23:42:00,42.0,41.0,-100.00,West,260,0.0,2.0,97,0.00,,,0.00,0.000000,,2013-08-13 04:42:00,
2013-08-12 23:53:00,42.0,41.0,-100.00,West,260,0.0,2.0,97,0.00,,,0.00,0.000000,,2013-08-13 04:53:00,